Location: Montbazon
(47.2835°N, 0.6999°E)
Time: 05:37:06
(UTC+00:00)

ARGOS - Pass Details

Date: 08 November 2025
Orbit: 818 x 832 km, 98.5° (Epoch: 16 December)

Event Time Altitude Azimuth Distance (km) Brightness Sun altitude
Rises 04:08:01 0° 13° (NNE) 3,389 6.6 -27.8°
Reaches altitude 10° 04:10:23 10° 13° (NNE) 2,452 5.8 -27.4°
Maximum altitude 04:15:50 84° 287° (WNW) 844 3.0 -26.5°
Enters shadow 04:16:24 72° 215° (SW) 877 3.0 -26.4°
